Location: Chippewa Lake
(41.0698°N, 81.9010°W)
Time: 19:34:29
(UTC+00:00)

Meteor 1-20 Rocket - Pass Details

Date: 09 May 2021
Orbit: 818 x 893 km, 81.2° (Epoch: 17 June)

Event Time Altitude Azimuth Distance (km) Brightness Sun altitude
Rises 01:41:35 0° 355° (N) 3,437 8.0 -12.1°
Reaches altitude 10° 01:44:07 10° 0° (N) 2,485 7.2 -12.5°
Maximum altitude 01:49:35 51° 76° (ENE) 1,048 4.5 -13.3°
Enters shadow 01:53:28 18° 146° (SSE) 1,905 5.5 -13.9°
